Location: Poughquag
(41.6090°N, 73.6820°W)
Time: 13:28:17
(UTC-04:00)

Vanguard 3 - Pass Details

Date: 03 June 2020
Orbit: 510 x 3261 km, 33.3° (Epoch: 05 July)

Event Time Altitude Azimuth Distance (km) Brightness Sun altitude
Exits shadow 23:55:00 22° 133° (SE) 5,080 10.7 -24.5°
Drops below altitude 10° 00:04:57 10° 98° (E) 5,571 11.2 -24.9°
Sets 00:10:08 0° 85° (E) 6,211 11.6 -25.1°
